Dobrodošli na spletni strani vremenske postaje Senovo. Vse informacije so informativnega značaja, saj vremenska postaja ni del državne mreže meteoroloških postaj. AKTUALNIH OBVESTIL NI.


Posebna pozornost v zvezi z vremenskimi dogajanji ni potrebna.    Posebna pozornost v zvezi z vremenskimi dogajanji ni potrebna.

Pogled proti Armezu več informacij Pogled proti Armezu


Bohor več informacij Bohor


Radar strel več informacij blitzortung!


Radar padavin več informacij rain snow radar


Obiščite še:

Template documentation
and downloads

And another site



Weather Underground, zgodovina - Tekstovno

Dnevni povzetek za Oktober 3, 2017 Enote:  Angleško    Metrično   Obe
« Predhodni Dan
Naslednji Dan »
Dnevni Tedenski Mesečni Letni Po meri
  Višja: Nižja: Povprečje:
Temperatura: TemperatureC °F 4.6 °F 11.4 °F
Točka rosišča: DewpointC °F 3.9 °F 9.6 °F
Vlažnost: Humidity % 68 % 90 %
Hitrost vetra: WindSpeedKMH mph 0.0 mph 1.1 mph
Sunki vetra: WindSpeedGustKMH mph - -
Veter:- - SW
Zračni tlak: PressurehPa in 1016.1 in -
Padavine: 4.6 in    
Historical Graphs
 
 
Tabelarni podarki za Oktober 3, 2017
Čas Temperatura Točka rosišča Zračni tlak Veter Hitrost vetra Sunki vetra Vlažnost Intenziteta padavin (urna)
TemperatureC °F DewpointC °F PressurehPa in Calm     Humidity % HourlyPrecipMM in
00:03 6.5 °F 5.1 °F 1020.9 in Calm     91 % 0.0 in
00:07 6.5 °F 5.1 °F 1020.9 in Calm     91 % 0.0 in
00:12 6.4 °F 5.1 °F 1020.9 in Calm     91 % 0.0 in
00:17 6.4 °F 5.1 °F 1020.9 in Calm     91 % 0.0 in
00:22 6.3 °F 4.9 °F 1020.9 in Calm     91 % 0.0 in
00:27 6.3 °F 4.9 °F 1020.9 in Calm     91 % 0.0 in
00:32 6.2 °F 4.8 °F 1020.9 in Calm     91 % 0.0 in
00:37 6.2 °F 5.0 °F 1020.9 in Calm     92 % 0.0 in
00:42 6.1 °F 4.9 °F 1019.9 in Calm     92 % 0.0 in
00:47 6.0 °F 4.8 °F 1019.9 in Calm     92 % 0.0 in
00:52 6.0 °F 4.8 °F 1019.9 in Calm     92 % 0.0 in
00:57 6.0 °F 4.8 °F 1019.9 in Calm     92 % 0.0 in
01:02 5.9 °F 4.7 °F 1019.9 in Calm     92 % 0.0 in
01:07 5.9 °F 4.7 °F 1019.9 in Calm     92 % 0.0 in
01:12 5.9 °F 4.7 °F 1019.9 in Calm     92 % 0.0 in
01:17 5.8 °F 4.8 °F 1019.9 in Calm     93 % 0.0 in
01:22 5.8 °F 4.8 °F 1019.9 in Calm     93 % 0.0 in
01:26 5.8 °F 4.8 °F 1019.9 in Calm     93 % 0.0 in
01:31 5.7 °F 4.7 °F 1019.9 in Calm     93 % 0.0 in
01:36 5.7 °F 4.7 °F 1019.9 in Calm     93 % 0.0 in
01:41 5.7 °F 4.7 °F 1018.8 in Calm     93 % 0.0 in
01:46 5.6 °F 4.6 °F 1018.8 in Calm     93 % 0.0 in
01:50 5.6 °F 4.6 °F 1018.8 in Calm     93 % 0.0 in
01:56 5.5 °F 4.4 °F 1019.9 in Calm     93 % 0.0 in
02:01 5.5 °F 4.4 °F 1019.9 in Calm     93 % 0.0 in
02:06 5.4 °F 4.3 °F 1019.9 in Calm     93 % 0.0 in
02:11 5.4 °F 4.3 °F 1018.8 in Calm     93 % 0.0 in
02:16 5.4 °F 4.3 °F 1018.8 in Calm     93 % 0.0 in
02:21 5.4 °F 4.3 °F 1018.8 in Calm     93 % 0.0 in
02:26 5.3 °F 4.3 °F 1019.9 in Calm     93 % 0.0 in
02:31 5.3 °F 4.3 °F 1019.9 in Calm     93 % 0.0 in
02:36 5.3 °F 4.3 °F 1019.9 in Calm     93 % 0.0 in
02:41 5.3 °F 4.3 °F 1019.9 in Calm     93 % 0.0 in
02:46 5.2 °F 4.2 °F 1019.9 in Calm     93 % 0.0 in
02:51 5.2 °F 4.2 °F 1019.9 in Calm     93 % 0.0 in
02:56 5.1 °F 4.1 °F 1019.9 in Calm     93 % 0.0 in
03:01 5.1 °F 4.1 °F 1019.9 in Calm     93 % 0.0 in
03:05 5.1 °F 4.2 °F 1019.9 in Calm     94 % 0.0 in
03:10 5.1 °F 4.2 °F 1019.9 in Calm     94 % 0.0 in
03:15 5.0 °F 4.1 °F 1019.9 in Calm     94 % 0.0 in
03:20 5.0 °F 4.1 °F 1019.9 in Calm     94 % 0.0 in
03:25 5.0 °F 4.1 °F 1018.8 in Calm     94 % 0.0 in
03:30 5.0 °F 4.1 °F 1018.8 in Calm     94 % 0.0 in
03:35 5.0 °F 4.1 °F 1018.8 in Calm     94 % 0.0 in
03:40 5.0 °F 4.1 °F 1018.8 in Calm     94 % 0.0 in
03:45 5.0 °F 4.1 °F 1018.8 in Calm     94 % 0.0 in
03:50 4.9 °F 4.0 °F 1018.8 in Calm     94 % 0.0 in
03:55 4.9 °F 4.0 °F 1018.8 in Calm     94 % 0.0 in
04:00 4.9 °F 4.2 °F 1018.8 in Calm     95 % 0.0 in
04:05 4.8 °F 4.1 °F 1018.8 in Calm     95 % 0.0 in
04:10 4.8 °F 4.1 °F 1018.8 in Calm     95 % 0.0 in
04:15 4.7 °F 3.9 °F 1018.8 in Calm     95 % 0.0 in
04:20 4.7 °F 3.9 °F 1018.8 in Calm     95 % 0.0 in
04:25 4.7 °F 3.9 °F 1018.2 in Calm     95 % 0.0 in
04:30 4.7 °F 3.9 °F 1018.2 in Calm     95 % 0.0 in
04:35 4.7 °F 3.9 °F 1018.2 in Calm     95 % 0.0 in
04:40 4.7 °F 3.9 °F 1018.2 in Calm     95 % 0.0 in
04:45 4.6 °F 3.9 °F 1018.2 in Calm     95 % 0.0 in
04:50 4.7 °F 3.9 °F 1018.2 in Calm     95 % 0.0 in
04:55 4.7 °F 3.9 °F 1018.2 in Calm     95 % 0.0 in
05:00 4.6 °F 3.9 °F 1018.2 in Calm     95 % 0.0 in
05:05 4.7 °F 3.9 °F 1018.2 in Calm     95 % 0.0 in
05:10 4.7 °F 3.9 °F 1018.2 in Calm     95 % 0.0 in
05:16 4.7 °F 3.9 °F 1018.2 in Calm     95 % 0.0 in
05:21 4.7 °F 3.9 °F 1018.2 in Calm     95 % 0.0 in
05:23 4.7 °F 3.9 °F 1018.2 in Calm     95 % 0.0 in
05:25 4.7 °F 3.9 °F 1018.2 in Calm     95 % 0.0 in
05:27 4.7 °F 3.9 °F 1018.2 in Calm     95 % 0.0 in
05:32 4.8 °F 4.1 °F 1018.2 in Calm     95 % 0.0 in
05:37 4.8 °F 4.1 °F 1018.2 in Calm     95 % 0.0 in
05:42 4.8 °F 4.1 °F 1018.2 in Calm     95 % 0.0 in
05:47 4.9 °F 4.3 °F 1018.2 in Calm     96 % 0.0 in
05:52 5.0 °F 4.3 °F 1018.2 in Calm     95 % 0.0 in
05:57 5.1 °F 4.4 °F 1016.8 in Calm     95 % 0.0 in
06:02 5.1 °F 4.4 °F 1016.8 in Calm     95 % 0.0 in
06:07 5.2 °F 4.4 °F 1016.8 in Calm     95 % 0.0 in
06:12 5.3 °F 4.7 °F 1018.2 in Calm     96 % 0.0 in
06:17 5.4 °F 4.8 °F 1018.2 in Calm     96 % 0.0 in
06:22 5.4 °F 4.8 °F 1018.2 in Calm     96 % 0.0 in
06:27 5.5 °F 4.9 °F 1018.2 in Calm     96 % 0.0 in
06:32 5.6 °F 5.0 °F 1018.2 in Calm     96 % 0.0 in
06:37 5.7 °F 5.1 °F 1018.2 in Calm     96 % 0.0 in
06:42 5.7 °F 5.1 °F 1018.8 in Calm     96 % 0.0 in
06:47 5.8 °F 5.2 °F 1018.8 in Calm     96 % 0.0 in
06:52 5.9 °F 5.3 °F 1018.8 in Calm     96 % 0.0 in
06:57 6.0 °F 5.4 °F 1018.2 in Calm     96 % 0.0 in
07:02 6.1 °F 5.5 °F 1018.2 in Calm     96 % 0.0 in
07:07 6.1 °F 5.5 °F 1018.2 in Calm     96 % 0.0 in
07:12 6.2 °F 5.6 °F 1018.2 in Calm     96 % 0.0 in
07:17 6.3 °F 5.7 °F 1018.2 in Calm     96 % 0.0 in
07:22 6.4 °F 5.8 °F 1018.2 in Calm     96 % 0.0 in
07:27 6.5 °F 5.9 °F 1018.2 in Calm     96 % 0.0 in
07:32 6.6 °F 6.0 °F 1018.2 in Calm     96 % 0.0 in
07:37 6.8 °F 6.2 °F 1018.2 in Calm     96 % 0.0 in
07:42 7.0 °F 6.4 °F 1018.2 in Calm     96 % 0.0 in
07:47 7.1 °F 6.5 °F 1018.2 in Calm     96 % 0.0 in
07:52 7.3 °F 6.7 °F 1018.2 in Calm     96 % 0.0 in
07:57 7.5 °F 6.9 °F 1018.2 in Calm     96 % 0.0 in
08:03 7.7 °F 7.3 °F 1018.2 in Calm     97 % 0.0 in
08:08 7.9 °F 7.4 °F 1018.2 in Calm     97 % 0.0 in
08:13 8.2 °F 7.6 °F 1016.8 in Calm     96 % 0.0 in
08:18 8.4 °F 7.8 °F 1016.8 in Calm     96 % 0.0 in
08:23 8.7 °F 8.3 °F 1016.8 in Calm     97 % 0.0 in
08:28 8.9 °F 8.4 °F 1016.8 in Calm     97 % 0.0 in
08:33 9.2 °F 8.7 °F 1016.8 in Calm     97 % 0.0 in
08:38 9.5 °F 9.1 °F 1016.8 in Calm     97 % 0.0 in
08:43 9.7 °F 9.2 °F 1016.8 in Calm     97 % 0.0 in
08:48 10.1 °F 9.7 °F 1016.8 in Calm     97 % 0.0 in
08:53 10.4 °F 9.9 °F 1016.8 in Calm   3.2 mph 97 % 0.0 in
08:58 10.8 °F 10.3 °F 1016.8 in West 0.3 mph 4.7 mph 97 % 0.0 in
09:03 11.3 °F 10.8 °F 1016.8 in West 0.3 mph 4.7 mph 97 % 0.0 in
09:08 11.7 °F 11.2 °F 1016.8 in Calm     97 % 0.0 in
09:13 12.2 °F 11.7 °F 1016.8 in SSW 1.3 mph 6.1 mph 97 % 0.0 in
09:18 12.8 °F 12.3 °F 1016.8 in SSW 2.6 mph 6.1 mph 97 % 0.0 in
09:23 13.2 °F 12.7 °F 1016.8 in SSW 3.7 mph 9.3 mph 97 % 0.0 in
09:28 13.6 °F 13.0 °F 1016.8 in SW 3.5 mph 9.3 mph 96 % 0.0 in
09:33 14.0 °F 13.4 °F 1016.8 in SW 1.6 mph 5.0 mph 96 % 0.0 in
09:38 14.2 °F 13.6 °F 1016.8 in SW 2.3 mph 8.7 mph 96 % 0.0 in
09:43 14.5 °F 13.7 °F 1016.8 in SSW 3.7 mph 10.1 mph 95 % 0.0 in
09:48 14.8 °F 13.8 °F 1016.8 in SSW 4.0 mph 10.1 mph 94 % 0.0 in
09:53 14.9 °F 13.9 °F 1016.8 in SW 4.5 mph 10.1 mph 94 % 0.0 in
09:58 15.1 °F 13.8 °F 1016.8 in WSW 3.4 mph 10.1 mph 92 % 0.0 in
10:03 15.3 °F 13.8 °F 1016.8 in SSW 2.7 mph 8.7 mph 91 % 0.0 in
10:08 15.5 °F 13.9 °F 1016.8 in SW 3.4 mph 13.7 mph 90 % 0.0 in
10:13 15.7 °F 13.7 °F 1016.8 in SSW 5.0 mph 13.7 mph 88 % 0.0 in
10:18 15.8 °F 13.4 °F 1016.8 in SW 5.5 mph 10.5 mph 86 % 0.0 in
10:23 15.9 °F 13.0 °F 1016.8 in SW 4.5 mph 10.1 mph 83 % 0.0 in
10:28 16.0 °F 12.9 °F 1016.8 in WSW 4.7 mph 12.6 mph 82 % 0.0 in
10:33 16.1 °F 12.7 °F 1016.8 in WSW 3.9 mph 12.6 mph 80 % 0.0 in
10:38 16.2 °F 12.3 °F 1016.8 in WSW 3.9 mph 10.5 mph 78 % 0.0 in
10:43 16.3 °F 12.3 °F 1016.8 in SW 4.7 mph 9.7 mph 77 % 0.0 in
10:48 16.4 °F 12.3 °F 1016.8 in SSW 6.1 mph 14.0 mph 77 % 0.0 in
10:53 16.5 °F 12.1 °F 1016.8 in SSW 6.4 mph 14.0 mph 75 % 0.0 in
10:58 16.6 °F 11.9 °F 1016.8 in SW 5.8 mph 10.5 mph 74 % 0.0 in
11:00 16.6 °F 11.9 °F 1016.8 in SW 5.8 mph 14.3 mph 74 % 0.0 in
11:05 16.8 °F 11.9 °F 1016.8 in SW 6.3 mph 14.3 mph 73 % 0.0 in
11:10 16.9 °F 12.0 °F 1016.8 in SSW 5.8 mph 11.9 mph 73 % 0.0 in
11:15 17.0 °F 11.9 °F 1016.8 in SSW 5.3 mph 10.1 mph 72 % 0.0 in
11:20 17.0 °F 11.7 °F 1016.8 in SW 4.5 mph 9.7 mph 71 % 0.0 in
11:25 17.0 °F 11.5 °F 1016.8 in WSW 4.7 mph 12.6 mph 70 % 0.0 in
11:30 16.9 °F 11.2 °F 1016.8 in West 6.3 mph 12.6 mph 69 % 0.0 in
11:35 16.8 °F 10.8 °F 1016.8 in West 7.2 mph 15.4 mph 68 % 0.0 in
11:40 16.8 °F 10.8 °F 1016.8 in WSW 6.6 mph 15.4 mph 68 % 0.0 in
11:45 16.8 °F 11.1 °F 1016.8 in WSW 5.1 mph 12.2 mph 69 % 0.0 in
11:50 16.7 °F 11.0 °F 1016.8 in South 3.4 mph 9.0 mph 69 % 0.0 in
11:55 16.7 °F 11.0 °F 1016.1 in WNW 3.5 mph 11.6 mph 69 % 0.0 in
12:00 16.6 °F 11.1 °F 1016.1 in West 4.3 mph 11.6 mph 70 % 0.0 in
12:05 16.6 °F 11.1 °F 1016.1 in SSW 4.2 mph 7.6 mph 70 % 0.0 in
12:10 16.6 °F 11.3 °F 1016.1 in SSW 4.0 mph 7.6 mph 71 % 0.0 in
12:15 16.6 °F 11.3 °F 1016.1 in WSW 4.2 mph 9.0 mph 71 % 0.0 in
12:20 16.5 °F 11.2 °F 1016.1 in WSW 3.7 mph 9.0 mph 71 % 0.0 in
12:25 16.5 °F 11.4 °F 1016.8 in SSW 3.9 mph 13.0 mph 72 % 0.0 in
12:30 16.4 °F 11.3 °F 1016.8 in SSW 4.2 mph 13.0 mph 72 % 0.0 in
12:35 16.3 °F 11.4 °F 1016.8 in SSW 4.5 mph 10.1 mph 73 % 0.0 in
12:40 16.3 °F 11.4 °F 1016.8 in SSW 4.7 mph 8.7 mph 73 % 0.3 in
12:45 16.2 °F 11.6 °F 1016.8 in SSW 3.9 mph 8.7 mph 74 % 0.3 in
12:50 16.1 °F 11.7 °F 1016.8 in South 3.4 mph 8.7 mph 75 % 0.3 in
12:55 16.1 °F 11.9 °F 1016.8 in South 3.2 mph 9.3 mph 76 % 0.3 in
13:00 16.1 °F 11.9 °F 1016.8 in SW 3.5 mph 9.7 mph 76 % 0.3 in
13:05 16.1 °F 11.9 °F 1016.8 in SW 4.2 mph 9.7 mph 76 % 0.3 in
13:10 16.2 °F 11.9 °F 1016.8 in SW 4.0 mph 10.1 mph 76 % 0.3 in
13:15 16.2 °F 11.9 °F 1016.8 in West 3.5 mph 10.1 mph 76 % 0.3 in
13:20 16.3 °F 12.3 °F 1016.8 in SW 4.0 mph 9.0 mph 77 % 0.3 in
13:25 16.3 °F 12.3 °F 1016.8 in South 3.7 mph 8.7 mph 77 % 0.3 in
13:30 16.3 °F 12.3 °F 1016.8 in South 3.2 mph 7.9 mph 77 % 0.3 in
13:35 16.3 °F 12.3 °F 1016.8 in South 3.5 mph 7.9 mph 77 % 0.3 in
13:40 16.4 °F 12.3 °F 1016.8 in South 3.2 mph 7.6 mph 77 % 0.0 in
13:45 16.4 °F 12.3 °F 1016.8 in SSW 4.0 mph 9.3 mph 77 % 0.0 in
13:50 16.5 °F 12.4 °F 1016.8 in SW 4.7 mph 9.3 mph 77 % 0.0 in
13:55 16.5 °F 12.4 °F 1016.1 in SSW 3.4 mph 8.7 mph 77 % 0.0 in
14:00 16.5 °F 12.4 °F 1016.1 in SSW 3.4 mph 8.7 mph 77 % 0.0 in
14:05 16.5 °F 12.4 °F 1016.1 in South 3.5 mph 6.4 mph 77 % 0.0 in
14:10 16.5 °F 12.4 °F 1016.8 in SSW 4.3 mph 9.7 mph 77 % 0.0 in
14:15 16.5 °F 12.4 °F 1016.8 in SSW 4.0 mph 9.7 mph 77 % 0.0 in
14:20 16.6 °F 12.7 °F 1016.8 in South 3.2 mph 9.3 mph 78 % 0.0 in
14:25 16.6 °F 12.7 °F 1016.8 in South 3.4 mph 6.4 mph 78 % 0.0 in
14:30 16.6 °F 12.7 °F 1016.8 in South 2.6 mph 6.4 mph 78 % 0.0 in
14:32 16.6 °F 12.7 °F 1016.8 in South 3.1 mph 7.9 mph 78 % 0.0 in
14:37 16.7 °F 12.8 °F 1016.8 in SSW 4.3 mph 10.1 mph 78 % 0.0 in
14:42 16.7 °F 12.8 °F 1016.8 in SSW 5.1 mph 10.1 mph 78 % 0.0 in
14:47 16.7 °F 12.8 °F 1016.8 in South 3.1 mph 9.0 mph 78 % 0.0 in
14:52 16.6 °F 12.7 °F 1016.8 in SSW 1.9 mph 6.4 mph 78 % 0.0 in
14:57 16.6 °F 12.7 °F 1016.8 in SSW 1.1 mph 6.4 mph 78 % 0.0 in
15:02 16.6 °F 12.7 °F 1016.8 in East 0.2 mph 2.1 mph 78 % 0.0 in
15:07 16.6 °F 12.9 °F 1016.8 in SE 0.3 mph 2.1 mph 79 % 0.0 in
15:12 16.6 °F 12.9 °F 1016.8 in SSE 0.2 mph 1.8 mph 79 % 0.0 in
15:17 16.6 °F 13.1 °F 1016.8 in SSE 0.2 mph 2.1 mph 80 % 0.0 in
15:22 16.5 °F 13.1 °F 1016.8 in SSE 0.2 mph 2.1 mph 80 % 0.0 in
15:32 16.5 °F 13.2 °F 1016.8 in Calm     81 % 0.0 in
15:37 16.5 °F 13.2 °F 1016.8 in Calm   4.0 mph 81 % 0.0 in
15:42 16.4 °F 13.3 °F 1016.8 in SW 1.3 mph 6.1 mph 82 % 0.0 in
15:47 16.3 °F 13.2 °F 1016.8 in SW 1.9 mph 6.1 mph 82 % 0.0 in
15:52 16.3 °F 13.4 °F 1016.8 in SW 0.6 mph 3.2 mph 83 % 0.3 in
15:57 16.2 °F 13.3 °F 1018.2 in Calm     83 % 0.3 in
16:02 16.1 °F 13.4 °F 1018.2 in Calm     84 % 0.3 in
16:07 16.1 °F 13.4 °F 1018.2 in Calm     84 % 0.3 in
16:12 15.9 °F 13.4 °F 1018.2 in Calm     85 % 0.5 in
16:17 15.8 °F 13.4 °F 1018.2 in Calm     86 % 0.8 in
16:22 15.7 °F 13.6 °F 1018.2 in Calm     87 % 0.8 in
16:27 15.6 °F 13.4 °F 1016.8 in Calm   3.2 mph 87 % 1.0 in
16:32 15.5 °F 13.5 °F 1016.8 in SSW 0.6 mph 3.2 mph 88 % 1.3 in
16:37 15.4 °F 13.4 °F 1016.8 in South 1.1 mph 4.3 mph 88 % 1.8 in
16:42 15.3 °F 13.5 °F 1018.2 in SSW 1.9 mph 5.5 mph 89 % 2.3 in
16:47 15.2 °F 13.4 °F 1018.2 in SW 2.7 mph 5.5 mph 89 % 2.5 in
16:52 15.2 °F 13.4 °F 1018.2 in SW 1.3 mph 4.7 mph 89 % 2.5 in
16:57 15.2 °F 13.6 °F 1018.2 in SSW 0.2 mph 1.8 mph 90 % 3.0 in
17:02 15.1 °F 13.4 °F 1018.2 in Calm     90 % 3.0 in
17:07 15.1 °F 13.4 °F 1018.2 in Calm   1.4 mph 90 % 2.8 in
17:12 15.1 °F 13.7 °F 1018.2 in Calm   1.4 mph 91 % 3.0 in
17:17 15.1 °F 13.7 °F 1018.2 in South 0.8 mph 4.3 mph 91 % 2.8 in
17:22 15.0 °F 13.6 °F 1018.2 in South 1.3 mph 4.3 mph 91 % 2.5 in
17:27 15.0 °F 13.6 °F 1018.2 in SE 0.8 mph 4.3 mph 91 % 2.5 in
17:32 15.0 °F 13.7 °F 1018.2 in South 1.3 mph 5.0 mph 92 % 2.0 in
17:37 14.9 °F 13.6 °F 1018.2 in SSW 1.1 mph 5.0 mph 92 % 1.8 in
17:42 14.9 °F 13.6 °F 1018.2 in SSE 0.3 mph 2.6 mph 92 % 1.3 in
17:47 14.9 °F 13.6 °F 1018.2 in Calm     92 % 1.3 in
17:52 14.8 °F 13.5 °F 1018.2 in Calm     92 % 1.0 in
17:57 14.7 °F 13.6 °F 1018.2 in Calm     93 % 0.8 in
18:02 14.7 °F 13.6 °F 1018.2 in Calm     93 % 0.8 in
18:07 14.7 °F 13.6 °F 1018.2 in Calm     93 % 0.8 in
18:12 14.6 °F 13.5 °F 1018.8 in Calm     93 % 0.8 in
18:17 14.6 °F 13.5 °F 1018.8 in Calm     93 % 0.8 in
18:22 14.5 °F 13.4 °F 1018.8 in Calm     93 % 1.0 in
18:27 14.5 °F 13.4 °F 1018.8 in Calm     93 % 1.0 in
18:32 14.5 °F 13.4 °F 1018.8 in SSW 0.2 mph 3.2 mph 93 % 1.0 in
18:37 14.4 °F 13.3 °F 1018.8 in SSW 0.2 mph 3.2 mph 93 % 1.0 in
18:42 14.4 °F 13.4 °F 1018.8 in Calm     94 % 0.8 in
18:47 14.3 °F 13.3 °F 1018.8 in Calm     94 % 0.8 in
18:52 14.3 °F 13.3 °F 1018.8 in SSW 1.0 mph 5.0 mph 94 % 0.8 in
18:57 14.3 °F 13.3 °F 1019.9 in SSW 2.4 mph 5.0 mph 94 % 0.8 in
19:02 14.2 °F 13.2 °F 1019.9 in SW 1.9 mph 4.3 mph 94 % 0.5 in
19:07 14.2 °F 13.2 °F 1019.9 in NW 0.3 mph 2.1 mph 94 % 0.5 in
19:12 14.2 °F 13.2 °F 1019.9 in Calm     94 % 0.3 in
19:18 14.2 °F 13.2 °F 1019.9 in WSW 0.2 mph 3.2 mph 94 % 0.3 in
19:23 14.2 °F 13.2 °F 1019.9 in WSW 0.2 mph 3.2 mph 94 % 0.3 in
19:28 14.2 °F 13.2 °F 1018.8 in Calm     94 % 0.0 in
19:33 14.1 °F 13.2 °F 1018.8 in Calm     94 % 0.0 in
19:38 14.1 °F 13.2 °F 1019.9 in Calm     94 % 0.0 in
19:43 14.1 °F 13.2 °F 1019.9 in Calm     94 % 0.0 in
19:53 14.0 °F 13.2 °F 1019.9 in Calm     95 % 0.0 in
19:55 14.0 °F 13.2 °F 1019.9 in Calm     95 % 0.0 in
20:00 13.9 °F 13.1 °F 1019.9 in Calm     95 % 0.0 in
20:01 13.9 °F 13.1 °F 1019.9 in Calm     95 % 0.0 in
20:06 13.9 °F 13.1 °F 1019.9 in WSW 0.5 mph 2.6 mph 95 % 0.0 in
20:11 13.8 °F 13.0 °F 1020.9 in WSW 0.5 mph 2.6 mph 95 % 0.0 in
20:16 13.8 °F 13.0 °F 1020.9 in Calm     95 % 0.0 in
20:21 13.8 °F 13.0 °F 1020.9 in Calm     95 % 0.0 in
20:26 13.7 °F 12.9 °F 1021.9 in Calm     95 % 0.0 in
20:31 13.7 °F 12.9 °F 1021.9 in Calm     95 % 0.0 in
20:36 13.6 °F 12.8 °F 1021.9 in Calm     95 % 0.0 in
20:41 13.6 °F 12.8 °F 1021.9 in Calm     95 % 0.0 in
20:46 13.5 °F 12.7 °F 1021.9 in Calm     95 % 0.0 in
20:56 13.4 °F 12.6 °F 1020.9 in Calm     95 % 0.0 in
21:01 13.4 °F 12.6 °F 1020.9 in Calm     95 % 0.0 in
21:06 13.3 °F 12.5 °F 1020.9 in WSW 0.6 mph 3.2 mph 95 % 0.0 in
21:11 13.2 °F 12.4 °F 1021.9 in WSW 0.6 mph 3.2 mph 95 % 0.0 in
21:16 13.1 °F 12.3 °F 1021.9 in Calm     95 % 0.0 in
21:21 13.0 °F 12.2 °F 1021.9 in Calm     95 % 0.0 in
21:26 12.9 °F 12.3 °F 1020.9 in Calm     96 % 0.0 in
21:31 12.9 °F 12.3 °F 1020.9 in Calm     96 % 0.0 in
21:34 12.8 °F 12.2 °F 1020.9 in Calm     96 % 0.0 in
21:39 12.8 °F 12.2 °F 1021.9 in Calm     96 % 0.0 in
21:44 12.7 °F 12.1 °F 1021.9 in Calm     96 % 0.0 in
21:49 12.7 °F 12.1 °F 1021.9 in Calm     96 % 0.0 in
21:54 12.6 °F 12.0 °F 1021.9 in NNW 0.3 mph 3.2 mph 96 % 0.0 in
21:59 12.6 °F 12.0 °F 1021.9 in NNW 0.5 mph 3.2 mph 96 % 0.0 in
22:04 12.6 °F 12.0 °F 1021.9 in NNW 0.2 mph 2.6 mph 96 % 0.0 in
22:09 12.6 °F 12.0 °F 1021.9 in NNW 0.2 mph 2.6 mph 96 % 0.0 in
22:14 12.5 °F 11.9 °F 1021.9 in Calm     96 % 0.0 in
22:24 12.4 °F 11.8 °F 1022.9 in Calm     96 % 0.0 in
22:29 12.3 °F 11.7 °F 1022.9 in Calm     96 % 0.0 in
22:34 12.3 °F 11.7 °F 1022.9 in Calm     96 % 0.0 in
22:39 12.2 °F 11.6 °F 1023.9 in Calm     96 % 0.0 in
22:44 12.2 °F 11.6 °F 1023.9 in Calm     96 % 0.0 in
22:49 12.1 °F 11.5 °F 1023.9 in Calm     96 % 0.0 in
22:54 12.0 °F 11.4 °F 1023.9 in Calm     96 % 0.0 in
22:59 11.9 °F 11.4 °F 1023.9 in Calm     97 % 0.0 in
23:04 11.9 °F 11.4 °F 1023.9 in Calm     97 % 0.0 in
23:09 11.8 °F 11.3 °F 1023.9 in Calm     97 % 0.0 in
23:14 11.7 °F 11.1 °F 1023.9 in Calm     96 % 0.0 in
23:19 11.7 °F 11.1 °F 1023.9 in Calm     96 % 0.0 in
23:24 11.6 °F 11.0 °F 1023.9 in Calm     96 % 0.0 in
23:29 11.5 °F 10.9 °F 1023.9 in Calm     96 % 0.0 in
23:34 11.4 °F 10.8 °F 1023.9 in Calm     96 % 0.0 in
23:39 11.3 °F 10.7 °F 1023.9 in Calm     96 % 0.0 in
23:44 11.2 °F 10.6 °F 1023.9 in Calm     96 % 0.0 in
23:49 11.1 °F 10.5 °F 1023.9 in Calm     96 % 0.0 in
23:54 11.1 °F 10.5 °F 1023.9 in Calm     96 % 0.0 in
23:59 10.9 °F 10.4 °F 1023.9 in Calm     97 % 0.0 in
Vremenska postaja Senovo
Podatki zbrani iz Weather Underground - 3 mb

Script developed by  Jim McMurry - jmcmurry@mwt.net Adapted for the template by  Wim van der Kuil - Leuven-Template.eu

Vremenski podatki so objavljeni na:

European Weather Network

WeatherCloud

Weather Underground

AWEKAS

HAMweather, WeatherForYou, PWS Weather

MapView

Geostik

Slovenia weather network

Oprema, ki se uporablja:

Vremenski program
Cumulus

Vremenski server
Asus

Cumulus

Asus